ISS DEB (51277 NORAD) Tracking and Keplerian Element Data

This shows tracking and keplerian element data for the satellite.

Feedback or suggestion? Click here.




ElementValue
Catalog51277
NameISS DEB
Epoch Orbit1273
Epoch Day99.81613151
Epoch Year2022
RAAN306.6851
Inclination51.6178
Eccentricity0.001503
Argument of Perigee271.6705
Mean Anonmoly88.2592
Mean Motion16.21839721
Decay Rate0.09590451
L11 51277U 98067SY 22099.81613151 .09590451 11906-4 40541-2 0 9990
L22 51277 51.6178 306.6851 0015030 271.6705 88.2592 16.21839721 12735



Live tracking and technical data element details for ISS DEB (NORAD 51277). ISS DEB can be tracked NOW for your location showing map with azimuth and elevation plus other details from your city location.







IsCatalogInMostPopularTable: catalog: 51277, numindb: 232
Update: records affected: 1



GetName: 51277 ISS DEB

Hit Count: updated at: Mon, 17 Nov 2025 07:36:26 GMT